Voltar ao catálogo

CZ-4 DEB

AtivoSSO
NORAD 26168·DEBRIS·🇨🇳 China

Lançado Oct 14, 1999 de Taiyuan Satellite Launch Center

Loading…

Próximas Passagens (próximas 24 horas)

TLE

AtualizadoSource: Space-Track

Época: Sep 14, 2026, 14:16 UTC

1 26168U 99057BE  26257.59491470  .00000140  00000-0  61056-4 0  9991
2 26168  98.7847 304.5019 0102666  40.4612 121.2839 14.35841154386681

Acompanhe CZ-4 DEB em tempo real com AllMySat

Download on the App Store